Regional Weather Roundup
Issued by NWS Sioux Falls, SD

Home | Current Version | Previous Version | Graphics & Text | Print | Product List | Glossary On
Versions: 1 2 3 4 5 6 7 8 9 10 11 12 13 14 15 16 17 18 19 20 21 22 23 24 25 26 27 28 29 30 31 32 33 34 35 36 37 38 39 40 41 42 43 44 45 46 47 48 49 50
000
ASUS43 KFSD 220210
RWRFSD

WEATHER ROUNDUP FOR SE SOUTH DAKOTA/SW MINNESOTA/NW IOWA
NATIONAL WEATHER SERVICE SIOUX FALLS SD
900 PM CDT MON JUL 21 2014

NOTE: "FAIR" INDICATES FEW OR NO CLOUDS BELOW 12,000 FEET WITH NO
SIGNIFICANT WEATHER AND OR OBSTRUCTIONS TO VISIBILITY.


SDZ038>040-050-052>070-220300-
SOUTHEAST SOUTH DAKOTA

CITY           SKY/WX    TMP DP  RH WIND       PRES   REMARKS
CHAMBERLAIN    CLEAR     89  60  36 NW6       29.77R
HURON          CLEAR     87  77  72 S7        29.72R HX  99
MADISON        FAIR      82  82 100 S9        29.78S HX  97
MITCHELL       PTCLDY    88  80  77 S7        29.74R HX 104
SIOUX FALLS    PTCLDY    84  78  82 S12       29.77F HX  95
WINNER         FAIR      96  56  26 NW3       29.80R
YANKTON        MOCLDY    84  79  84 SE6       29.76R HX  96
$$

MNZ071-072-080-081-089-090-097-098-220300-
SOUTHWEST MINNESOTA

CITY           SKY/WX    TMP DP  RH WIND       PRES   REMARKS
FAIRMONT       CLOUDY    82  73  74 SE13      29.84S
LUVERNE        PTCLDY    82  77  83 SE6       29.80S
MARSHALL       CLEAR     82  73  74 S13       29.75F
MONTEVIDEO     PTCLDY    81  75  83 S7G16     29.75F
PIPESTONE      CLEAR     82  75  78 S9        29.80F
REDWOOD FALLS  PTCLDY    82  75  79 SE12      29.77F
TRACY          CLEAR     82  76  82 S9        29.79F
WINDOM         MOCLDY    82  73  74 SE8       29.82S
WORTHINGTON    PTCLDY    81  77  89 S8        29.84R
$$

IAZ001>003-012>014-020>022-031-032-NEZ013-014-SDZ071-220300-
NORTHWEST IOWA

CITY           SKY/WX    TMP DP  RH WIND       PRES   REMARKS
CHEROKEE       MOCLDY    83  79  88 S7        29.82S
DENISON        MOCLDY    84  79  84 S13       29.83S HX  96
ESTHERVILLE    CLOUDY    81  76  84 S9        29.84S
LE MARS        PTCLDY    84  77  79 S5        29.80S
ORANGE CITY    MOCLDY    84  75  74 S6        29.81S
SHELDON        MOCLDY    81  79  94 SE9       29.80F
SIOUX CITY     CLEAR     86  78  77 SE8       29.79S HX  98
SPENCER        MOCLDY    83  77  82 SE9       29.84S
STORM LAKE     CLOUDY    82  81  94 S9        29.85S HX  95
$$

ABBREVIATIONS USED IN REMARKS
   TC - TEMPERATURE IN CELSIUS
  WCI - WIND CHILL INDEX
   HX - HEAT INDEX
  VSB - VISIBILITY




USA.gov is the U.S. government's official web portal to all federal, state and local government web resources and services.